カタログに戻る

STARLINK-38174

運用中通信SSO
NORAD 100104·PAYLOAD·🇺🇸 United States

打ち上げ Jul 21, 2026 から Vandenberg Space Force Base

Loading…

次のパス (今後24時間)

TLE

最新Source: Space-Track

元期: Sep 14, 2026, 00:39 UTC

1 A0104U 26166D   26257.02761887  .00104240  00000-0  69097-3 0  9992
2 A0104  97.2834 275.0430 0001323  64.3158 295.8244 15.75199137  8580

AllMySatでSTARLINK-38174をリアルタイム追跡

Download on the App Store